Flag for Kenya Weather past 2 weeks in Mombasa, Kenya

Now
79 °F

Broken clouds.


Feels Like: 82 °F
Forecast: 74 / 78 °F
Wind: 7 mph from West

Location: Mombasa Airport

Current Time: Jul 28, 2015 at 9:26:32 AM

Latest Report: Jul 28, 2015 at 9:00 AM


Visibility: N/A

Pressure: 30.07 "Hg

Humidity: 84%

Dew point: 73 °F

Location of MombasaLocation

Historic Weather in Mombasa — Graph

°F

Mombasa temperature yesterday

Maximum temperature yesterday: 82 °F (at 11:00 AM)
Minimum temperature yesterday: 72 °F (at 3:00 AM)
Average temperature yesterday: 78 °F

Past Weeks' High & Low Weather Summary

 TemperatureHumidityPressure
High84 °F (Jul 13, 1:00 PM)100% (Jul 17, 5:00 AM)30.12 "Hg (Jul 17, 5:00 AM)
Low70 °F (Jul 17, 5:00 AM)55% (Jul 17, 3:00 PM)29.95 "Hg (Jul 17, 4:00 PM)
Average77 °F82%30.03 "Hg
* Reported Jul 13 8:00 AM — Jul 28 8:00 AM, Mombasa, Weather by CustomWeather, © 2015

Note: Actual official high and low records may vary slightly from our data, if they occured in-between our weather recording intervals... More about our weather records

Advertising

Mombasa weather history for previous 24 hours

 ConditionsComfort  
Time TempWeatherWind HumidityBarometerVisibility
8:00 AM
Tue, Jul 28
75 °FPartly sunny.5 mph89%30.04 "HgN/A
7:00 AM72 °FScattered clouds.6 mph94%30.01 "HgN/A
6:00 AM72 °FPartly cloudy.5 mph94%30.01 "HgN/A
4:00 AM73 °FPassing clouds.5 mph89%29.98 "HgN/A
11:00 PM
Mon, Jul 27
75 °FPassing clouds.5 mph83%30.01 "HgN/A
8:00 PM77 °FPassing clouds.5 mph83%29.98 "HgN/A
7:00 PM77 °FPassing clouds.7 mph89%29.98 "HgN/A
6:00 PM77 °FPartly sunny.8 mph83%29.95 "HgN/A
5:00 PM79 °FPartly sunny.7 mph74%29.95 "HgN/A
4:00 PM82 °FPartly sunny.9 mph66%29.95 "HgN/A
3:00 PM82 °FScattered clouds.12 mph66%29.95 "HgN/A
2:00 PM82 °FScattered clouds.9 mph66%29.98 "HgN/A
1:00 PM82 °FPartly sunny.9 mph66%30.01 "HgN/A
12:00 PM82 °FPartly sunny.10 mph62%30.04 "HgN/A
11:00 AM82 °FPartly sunny.12 mph66%30.04 "HgN/A
10:00 AM81 °FPartly sunny.9 mph70%30.07 "HgN/A
9:00 AM77 °FPassing clouds.8 mph83%30.07 "HgN/A
Weather by CustomWeather, © 2015

See weather overviewHow to use our weather pages